Theta_e
313 312 312 313 313 313 313 313 312 313 314 314 315 315 316 316 316 311 306 310 315 317 319 307 305 305 305 304 308 311 304 300 302 301 303 311 308 313 315 311 313 314 314 316 328
314 314 314 313 313 312 312 312 313 313 313 314 314 315 315 316 311 308 316 317 322 321 305 301 302 303 301 302 305 305 300 301 307 308 307 309 307 309 308 308 309 311 315 316 317
314 315 314 314 314 313 312 312 312 312 313 313 314 314 315 315 306 306 323 322 322 321 307 306 305 303 298 301 301 301 298 304 306 305 306 305 307 307 306 304 308 307 310 313 316
314 314 314 314 313 313 312 312 313 312 312 312 313 313 315 312 295 311 328 326 326 314 310 307 303 298 297 296 299 297 300 301 305 303 301 301 304 302 304 305 309 309 311 312 313
313 314 313 313 312 312 312 312 312 312 311 311 312 313 311 300 303 316 330 325 318 312 307 305 301 299 295 297 298 297 297 299 300 300 300 300 301 303 302 305 307 310 310 310 312
313 313 312 312 311 311 312 311 311 310 310 310 312 313 307 292 307 313 321 318 315 311 306 307 301 301 298 297 297 298 298 298 299 300 300 298 299 301 303 306 305 307 309 310 312
313 312 311 310 310 311 311 312 310 310 311 312 312 312 303 296 309 312 316 312 314 311 305 307 305 301 300 296 299 297 294 296 297 298 297 299 294 296 302 303 303 305 307 308 309
311 309 310 310 310 311 311 311 311 310 311 313 314 311 297 305 310 311 312 310 311 312 309 307 305 302 300 300 297 294 293 290 295 296 297 297 291 297 301 301 301 303 305 306 308
311 310 310 310 310 311 311 311 312 313 313 314 311 305 300 315 308 308 310 304 303 304 305 305 303 298 298 295 292 292 289 289 291 297 297 296 292 298 301 300 300 302 303 305 307
311 310 309 309 310 310 311 311 315 315 314 314 311 302 306 303 309 309 306 304 302 301 300 299 299 296 295 294 286 287 288 289 289 294 296 294 294 297 299 299 299 300 301 304 305
309 309 308 309 309 310 309 307 303 301 308 300 300 300 302 308 308 303 305 303 302 299 294 295 293 290 292 293 292 291 290 288 292 295 294 293 293 296 298 299 299 300 300 302 305
308 308 309 309 310 310 306 304 303 304 297 301 302 303 305 306 300 303 306 299 297 293 293 292 289 294 294 293 291 291 289 289 292 295 293 293 292 295 297 298 300 301 301 302 303
308 308 309 309 309 306 304 305 308 305 297 298 300 300 301 304 299 301 303 299 295 292 291 289 291 294 293 292 291 291 289 289 288 292 294 292 289 292 296 298 300 301 302 303 303
308 308 309 308 305 305 305 307 307 305 294 294 297 301 302 302 297 304 304 300 295 292 291 291 294 292 291 290 292 287 294 291 290 288 284 291 282 290 293 295 297 299 301 302 304
308 309 309 307 305 305 307 307 307 306 282 296 296 305 301 297 298 298 303 299 294 293 293 290 291 291 290 290 294 289 294 292 291 289 287 287 285 289 293 292 294 298 301 303 306
308 309 308 307 306 308 306 306 307 293 282 291 296 295 295 296 297 299 299 300 298 293 293 292 295 294 293 295 294 294 292 290 289 288 282 286 285 286 290 292 295 298 301 304 305
307 308 307 306 303 306 306 305 292 286 293 289 291 294 293 293 295 296 294 293 290 287 287 290 290 295 296 292 293 292 289 282 280 281 280 288 285 287 293 295 296 297 300 304 306
306 306 307 307 309 308 306 298 286 289 289 294 293 293 290 293 293 293 292 291 294 291 287 285 283 291 295 292 290 290 289 283 275 278 281 287 282 289 295 297 299 301 303 305 305
305 308 308 309 309 305 301 291 289 290 293 292 292 289 289 292 292 292 290 291 293 294 288 286 285 293 294 295 294 289 287 290 284 285 281 284 288 293 296 296 298 299 301 302 303
304 305 307 307 307 305 298 291 293 295 295 293 287 290 286 288 289 290 290 294 293 295 296 291 284 291 293 295 294 292 294 285 287 277 276 282 284 285 291 293 296 297 299 301 303
304 302 307 305 307 301 293 291 294 297 296 293 290 289 289 288 290 289 289 292 295 294 296 293 289 288 291 290 289 289 288 288 288 286 279 278 284 293 293 295 295 298 299 300 302
301 297 306 304 296 291 292 292 295 295 297 295 294 291 290 290 289 288 288 291 296 297 291 293 290 284 286 293 294 292 290 290 284 282 285 284 283 296 297 296 298 298 300 301 303
297 297 305 302 292 289 291 292 294 293 294 294 292 293 293 290 287 290 290 294 295 294 292 294 288 282 283 288 291 289 290 291 291 288 284 280 284 296 297 297 299 298 300 301 303
296 291 294 295 292 290 288 289 290 295 293 293 292 293 291 289 291 289 289 293 294 294 296 296 290 286 281 284 289 286 289 291 289 283 285 285 287 292 295 296 298 299 301 301 302
293 289 290 286 288 289 289 289 288 289 292 293 291 290 288 286 287 287 290 290 293 295 295 294 286 288 288 289 289 289 288 289 288 288 283 287 288 292 295 297 299 300 300 300 300
292 290 292 289 288 288 288 287 286 288 289 288 288 289 290 287 288 286 288 288 288 292 293 294 286 287 284 289 289 287 289 290 290 290 289 290 290 297 299 299 298 299 298 298 299
294 294 293 287 287 287 287 287 287 289 290 292 290 289 288 290 292 294 294 293 292 290 290 290 288 284 280 287 287 284 289 290 291 293 292 288 293 298 296 297 297 297 298 297 299
Wind_Speed
17 17 17 16 16 16 15 15 14 14 14 15 15 15 16 16 16 3 7 5 6 7 3 4 1 3 3 4 3 3 8 11 16 10 5 4 4 3 3 9 6 3 7 11 9
17 17 16 16 16 16 16 16 15 14 14 14 14 15 16 16 9 8 6 7 7 3 1 2 4 5 4 5 5 8 9 15 5 7 8 6 2 7 7 8 12 11 8 11 13
19 18 18 17 16 16 16 16 16 15 14 14 13 14 15 13 5 1 9 10 7 4 2 2 3 3 4 3 6 5 12 6 9 4 4 11 8 5 8 13 6 14 17 18 13
19 19 19 18 17 17 16 16 16 14 13 12 12 13 15 3 2 2 10 10 8 5 2 3 3 4 4 7 2 8 5 6 11 5 4 3 4 10 12 16 13 17 15 11 14
19 19 20 19 18 17 17 17 16 14 12 10 9 9 4 2 6 1 10 10 6 2 1 2 2 3 4 3 3 6 2 2 3 6 6 6 14 19 15 9 14 10 15 16 15
19 19 20 20 20 19 17 16 14 13 11 9 6 5 1 4 1 6 9 8 4 3 2 4 1 1 3 1 3 2 4 6 5 8 7 7 16 7 3 9 12 12 14 12 12
20 19 21 21 21 20 18 15 13 12 9 7 4 2 1 9 0 4 5 4 4 4 2 3 3 3 3 3 0 1 5 6 7 4 6 7 12 10 5 5 5 5 7 7 7
20 21 21 21 21 20 19 17 15 12 10 7 5 3 6 4 3 8 4 4 5 5 4 3 5 3 2 4 1 1 2 3 5 3 1 6 8 2 9 10 9 9 5 9 11
21 20 22 22 21 20 20 18 11 7 7 7 5 2 4 5 3 2 5 3 2 3 2 2 2 2 2 1 4 2 1 1 1 5 5 3 6 4 6 7 9 9 7 7 10
22 21 23 22 21 20 20 7 5 12 6 5 2 3 3 3 4 4 3 2 1 3 2 1 2 3 3 3 3 2 2 1 4 4 9 12 11 11 13 8 9 10 8 5 7
24 23 22 21 20 17 10 2 2 2 3 5 0 3 5 6 3 2 2 4 2 3 1 2 4 4 3 4 2 3 3 3 3 1 11 13 18 18 14 13 11 9 7 6 8
25 23 21 20 19 15 1 2 2 3 5 5 8 6 6 2 3 2 1 2 2 2 2 3 6 5 2 3 4 5 4 3 5 5 8 15 19 20 18 13 12 9 6 9 7
24 22 20 17 17 2 2 4 5 7 3 4 4 3 2 7 3 5 7 3 5 3 3 3 2 6 4 4 6 5 5 3 5 5 9 10 11 1 8 3 5 8 9 9 9
23 21 16 14 2 3 1 4 5 5 2 1 1 3 4 2 4 5 7 4 3 4 4 4 2 6 6 5 7 5 7 3 5 8 7 4 6 8 2 7 4 5 6 8 12
24 21 12 4 1 0 6 9 1 3 2 0 2 5 4 4 4 1 4 3 9 7 5 2 3 3 4 2 7 0 4 3 6 9 6 6 7 1 6 6 3 9 10 9 5
24 19 2 3 1 3 8 6 2 3 2 1 2 3 3 1 2 4 1 1 2 5 6 9 1 4 6 3 2 3 1 3 1 3 6 0 5 3 6 6 4 9 6 7 5
24 15 1 1 3 7 6 0 2 3 2 1 2 4 4 3 3 3 2 2 6 6 9 3 3 2 3 5 3 2 3 5 3 4 4 1 10 10 9 9 13 13 10 4 6
23 4 2 2 5 5 1 1 4 1 2 3 3 7 3 3 1 5 3 4 2 3 4 7 7 6 3 3 2 4 3 4 5 4 7 5 12 3 1 5 11 10 11 10 10
14 1 0 3 3 1 1 1 1 1 4 4 7 3 2 1 4 4 1 3 1 1 3 4 4 1 3 3 5 6 5 2 4 5 7 8 11 14 11 8 7 10 7 8 12
2 2 1 9 2 1 2 2 3 2 3 2 3 3 3 2 4 2 3 0 3 2 3 2 5 3 1 3 3 6 9 4 3 5 6 7 16 13 13 11 12 6 6 8 13
2 0 1 8 1 3 1 3 3 2 1 4 3 5 5 5 5 3 4 1 1 2 2 3 4 4 2 8 12 6 5 2 2 5 6 9 7 2 11 12 11 10 9 14 17
2 1 4 3 1 1 1 1 4 4 1 3 3 3 3 1 3 5 7 5 1 5 3 1 2 8 12 7 3 3 9 10 8 6 6 5 16 10 12 5 11 20 21 17 16
2 3 2 3 1 2 4 4 4 3 2 2 3 1 1 1 4 5 3 4 5 1 2 4 3 5 6 5 4 4 8 9 7 2 15 13 15 6 12 18 23 21 20 17 16
2 4 3 5 2 2 4 3 3 2 1 3 3 1 1 1 2 4 2 1 3 2 6 2 6 10 11 10 2 8 11 12 11 7 18 18 33 24 26 22 19 18 17 17 17
4 2 1 4 2 4 2 3 4 4 4 4 4 6 3 4 4 6 5 4 7 10 4 6 10 14 18 19 17 20 21 20 20 23 18 23 25 26 22 20 19 16 16 19 21
3 3 1 2 3 4 2 2 2 2 3 5 3 5 6 7 8 16 16 13 10 2 1 4 3 3 12 15 17 19 21 19 19 22 23 28 28 26 20 13 17 14 17 21 22
1 1 1 1 0 3 1 1 0 6 5 8 6 11 13 15 11 11 13 13 12 6 3 1 2 4 6 2 10 16 11 10 9 11 13 18 20 18 19 18 16 19 23 27 26
Wind_Direction
347 343 341 339 337 334 332 330 326 323 323 321 322 322 321 320 315 267 231 222 208 234 174 305 108 140 158 190 195 170 227 232 233 207 206 163 242 286 293 289 291 281 307 327 346
344 342 339 337 333 330 327 323 322 319 318 320 322 323 323 326 305 258 243 200 203 164 195 148 133 145 169 186 188 205 226 225 219 224 198 198 201 292 290 297 290 282 292 319 318
341 338 336 335 333 328 323 320 319 316 316 320 323 325 325 326 276 21 166 184 197 171 111 105 122 149 176 184 180 187 235 223 220 245 280 281 230 254 275 282 277 310 323 327 328
337 337 334 333 330 327 323 319 314 313 310 317 321 326 321 293 150 71 164 165 150 142 123 109 130 144 163 188 180 231 231 242 252 280 310 262 316 253 254 267 291 298 303 307 318
336 334 334 330 329 325 322 318 313 310 306 311 316 326 331 260 256 6 158 151 135 143 119 118 131 148 157 175 185 221 232 289 285 292 268 275 252 249 276 284 288 296 301 301 301
336 335 332 329 326 323 319 315 308 303 298 297 302 311 274 265 69 10 151 154 164 185 177 186 168 183 121 178 234 171 261 271 275 257 251 255 263 277 229 314 296 294 296 295 292
333 334 331 327 325 323 320 313 304 294 286 275 269 240 171 247 346 343 196 207 181 187 214 217 198 216 163 178 60 263 272 281 246 261 253 268 267 253 19 341 291 355 331 337 347
337 332 329 326 324 321 318 313 299 282 263 245 211 188 254 230 282 284 179 236 205 213 247 251 199 128 267 129 58 222 194 219 115 5 359 215 254 135 31 6 330 322 328 324 327
335 330 329 327 324 322 321 314 294 237 209 196 160 226 266 309 230 329 191 210 171 170 237 93 126 90 146 214 165 33 163 321 65 69 356 339 296 274 355 349 313 304 312 316 315
333 331 328 326 325 324 324 320 102 111 139 180 224 246 249 334 303 320 190 215 272 145 164 121 80 164 144 216 205 140 144 274 306 22 330 304 282 294 299 276 268 286 298 308 307
332 332 328 325 323 327 326 179 214 142 193 249 296 288 291 323 270 198 117 140 141 74 235 47 224 211 159 201 164 174 190 221 278 266 327 299 299 299 285 274 266 256 270 287 287
334 331 328 323 319 325 273 76 71 346 311 245 253 259 265 288 296 258 194 205 197 245 157 208 226 189 165 174 184 191 204 221 275 260 293 296 296 286 283 265 255 219 244 273 278
334 331 327 323 317 300 341 87 334 162 263 291 208 212 199 172 226 256 183 166 224 235 205 243 90 161 195 179 194 206 222 214 279 299 272 297 290 59 329 193 213 262 278 291 279
338 334 329 322 271 334 46 338 324 204 314 70 162 149 142 184 249 209 205 180 187 250 182 261 128 189 197 232 211 242 206 230 281 310 307 347 297 267 153 308 243 300 302 301 299
341 337 333 332 4 48 339 333 326 216 179 67 99 126 153 226 332 112 162 160 227 190 197 181 186 220 250 218 189 318 164 280 289 288 291 254 256 175 221 222 181 325 317 300 297
341 343 3 96 238 301 327 317 224 227 196 119 50 16 344 2 250 310 209 132 103 200 228 262 269 256 261 134 153 100 253 286 168 252 244 148 258 196 208 203 267 310 287 286 306
341 343 227 217 356 332 320 261 237 239 16 9 349 334 333 299 285 351 331 218 231 216 225 214 215 169 197 166 124 130 314 300 237 216 310 131 286 258 229 252 289 295 286 312 331
336 346 194 253 309 320 330 184 237 40 306 349 325 316 225 5 338 338 282 209 94 235 227 219 227 184 158 217 216 192 250 268 285 262 296 258 252 239 64 286 284 285 283 300 318
323 54 228 350 315 307 122 190 271 279 329 301 310 278 221 213 328 316 296 261 191 68 240 196 236 234 206 221 203 150 210 25 277 252 267 239 258 272 277 296 286 300 297 298 335
14 344 311 339 313 73 94 221 228 271 316 252 252 238 255 303 302 289 301 128 155 18 347 124 287 239 200 201 172 246 142 177 190 256 257 254 270 265 300 312 308 324 312 323 327
19 23 31 351 210 52 151 242 270 272 310 252 248 252 247 279 247 241 272 200 185 128 62 164 244 237 249 220 233 176 198 152 286 248 269 299 273 6 305 318 317 321 322 318 319
19 274 5 330 14 14 196 309 318 261 269 280 272 258 250 230 248 248 258 256 219 172 209 110 244 260 267 262 310 265 247 234 233 207 237 291 274 289 281 322 316 308 304 309 305
25 297 354 330 28 339 326 291 264 295 325 310 289 14 41 267 283 255 262 67 44 94 199 181 216 286 276 150 152 203 198 212 219 250 243 262 267 178 271 303 304 304 303 304 305
349 347 354 50 26 9 344 279 291 348 253 346 309 36 318 235 230 278 279 210 14 338 309 268 238 247 258 296 296 268 248 224 226 252 266 250 273 276 284 288 305 309 300 299 302
15 61 49 328 36 343 291 314 300 306 4 335 118 59 18 270 265 264 273 275 286 309 260 203 255 251 261 267 270 267 270 263 250 246 252 269 269 281 286 292 299 308 299 300 302
22 350 111 287 288 282 210 222 294 337 312 303 260 326 306 261 257 282 285 276 268 266 245 184 256 241 274 262 260 268 263 259 253 257 260 265 274 278 284 284 295 297 307 303 293
53 121 275 200 231 269 226 352 40 339 258 250 300 300 284 281 286 280 272 262 253 254 276 290 249 278 271 299 296 272 266 241 229 244 256 273 290 306 296 304 312 310 304 299 293